Simultaneous Nadir Overpasses (SNOs) Predictions

Prediction of SNOs between AURA and NPP Satellite Orbit:

Table of predicted SNOs for the next 14.0 days since TLE Epoch: 8/9/2013
Index Date (AURA) Time (AURA) Lat,Lon (AURA) SZA (AURA ) Date (NPP) Time (NPP) Lat,Lon (NPP) SZA (NPP ) Distance(km) Time Diff (sec)
1 08/09/2013 19:08:54 79.11, 146.98 77.84 08/09/2013 19:07:57 79.11, 147.07 77.87 1.85 57
2 08/09/2013 19:58:14 -79.39, -43.60 102.55 08/09/2013 19:58:34 -79.40, -43.47 102.59 2.92 20
3 08/12/2013 11:25:23 79.14, -96.92 78.56 08/12/2013 11:24:55 79.14, -96.98 78.59 1.25 28
4 08/12/2013 12:14:43 -79.42, 72.52 101.84 08/12/2013 12:15:32 -79.42, 72.50 101.88 0.29 49
5 08/15/2013 02:54:56 -71.92,-171.61 92.28 08/15/2013 02:53:43 -72.23,-173.59 91.97 76.09 73
6 08/15/2013 03:41:50 79.24, 19.57 79.20 08/15/2013 03:41:51 79.23, 19.47 79.22 2.21 1
7 08/17/2013 19:08:56 -79.09, -33.13 99.79 08/17/2013 19:08:08 -79.09, -33.11 99.76 0.34 48
8 08/17/2013 19:58:15 79.36, 136.21 79.84 08/17/2013 19:58:45 79.36, 136.17 79.83 1.06 30
9 08/20/2013 11:25:24 -79.12, 82.91 99.00 08/20/2013 11:25:06 -79.11, 82.79 98.96 2.86 18
10 08/20/2013 12:14:41 79.46,-107.23 80.53 08/20/2013 12:15:40 79.47,-107.12 80.46 2.34 59
11 08/23/2013 02:52:28 79.00, 30.42 82.02 08/23/2013 02:51:22 79.00, 30.49 82.06 1.66 66




NCC Satellite Simultaneous Nadir Overpasses (SNOs) Prediction Service
